Home > Weather > Aleppo > Past weeks

Flag for Syria Past Weather in Aleppo, Syria — Yesterday and Last 2 Weeks

Now
70 °F

Passing clouds.


Feels Like: 72 °F
Forecast: 60 / 85 °F
Wind: 1 mph from East

Location: Iskenderun

Current Time: May 30, 2016 at 2:12:38 AM

Latest Report: May 30, 2016 at 12:00 AM


Visibility: 9 mi

Pressure: 29.97 "Hg

Humidity: 75%

Dew Point: 62 °F

Location of AleppoLocation

Past Weather in Aleppo — Graph

°F

Aleppo Temperature Yesterday

Maximum temperature yesterday: 76 °F (at 1:00 PM)
Minimum temperature yesterday: 65 °F (at 12:00 AM)
Average temperature yesterday: 73 °F

High & Low Weather Summary for the Past Weeks

 TemperatureHumidityPressure
High82 °F (May 16, 6:00 PM)96% (May 24, 12:00 AM)30.01 "Hg (May 24, 12:00 AM)
Low61 °F (May 28, 3:00 AM)47% (May 18, 6:00 PM)29.68 "Hg (May 26, 7:00 PM)
Average74 °F66%29.85 "Hg
* Reported May 15 9:00 AM — May 30 12:00 AM, Aleppo, Weather by CustomWeather, © 2016

Note: Actual official high and low records may vary slightly from our data, if they occured in-between our weather recording intervals... More about our weather records

Advertising

Aleppo Weather History for the Previous 24 Hours

Scroll right to see more
 ConditionsComfort  
Time TempWeatherWind HumidityBarometerVisibility
12:00 AM
Mon, May 30
70 °FPassing clouds.1 mph75%29.97 "Hg9 mi
9:00 PM
Sun, May 29
72 °FPassing clouds.1 mph72%29.97 "Hg9 mi
8:00 PM73 °FPassing clouds.10 mph71%29.96 "Hg9 mi
7:00 PM74 °FPartly sunny.10 mph69%29.93 "Hg12 mi
6:00 PM75 °FScattered clouds.10 mph73%29.91 "Hg12 mi
5:00 PM74 °FOvercast.10 mph71%29.92 "Hg12 mi
4:00 PM75 °FPartly sunny.12 mph72%29.90 "Hg12 mi
3:00 PM76 °FPartly sunny.3 mph69%29.90 "Hg12 mi
2:00 PM75 °FScattered clouds.5 mph63%29.91 "Hg12 mi
1:00 PM76 °FPassing clouds.5 mph60%29.91 "Hg12 mi
12:00 PM76 °FPassing clouds.3 mph59%29.91 "Hg12 mi
11:00 AM75 °FPassing clouds.3 mph61%29.91 "Hg9 mi
10:00 AM74 °FPassing clouds.3 mph65%29.90 "Hg9 mi
9:00 AM73 °FPassing clouds.2 mph65%29.89 "Hg9 mi
6:00 AM65 °FPartly sunny.1 mph80%29.85 "Hg12 mi
3:00 AM65 °FPassing clouds.1 mph77%29.83 "Hg12 mi
Weather by CustomWeather, © 2016

See weather overviewHow to use our weather pages